[[{"header":{"parameterUnit":"m.s-1","parameterCategory":1,"la1":30.2991,"la2":30.254,"lo1":-89.0895,"lo2":-89.0444,"dy":0.0017,"dx":0.0017,"nx":28,"ny":28,"refTime":"2025-11-27T09:00:00:Z","depth":0,"parameterNumber":2,"parameterNumberName":"U-component_of_WINDS"},"data":[0,0,0,0,0,0,0,0,0,0,0,0,0,0,0,0,0,0,0,0,0,0,0,0,0,0,0,0,0,0,0,0,0,0,0,0,0,0,0,0,0,0,0,0,0,0,0,0,0,0,0,0,0,0,0,0,0,0,-0.772,-0.772,0,-0.771,-0.771,-0.771,-0.768,-0.768,-0.7679,-0.7678,-0.7669,-0.7669,-0.7669,0,0,0,0,0,0,0,0,0,0,0,0,0,-0.7716,-0.7716,-0.772,-0.772,-0.772,-0.771,-0.771,-0.771,-0.768,-0.768,-0.7679,-0.7678,-0.7669,-0.7669,-0.7669,0,0,0,0,0,0,0,0,0,0,0,0,0,-0.7713,-0.7716,-0.772,-0.7704,-0.7703,-0.771,-0.771,-0.771,-0.7681,-0.768,-0.7679,-0.7678,-0.7668,-0.7669,-0.7669,-0.7692,0,0,-0.7671,-0.7671,0,0,0,0,0,0,0,0,-0.7713,-0.7713,-0.7707,-0.7705,-0.7704,-0.7695,-0.7705,-0.7704,-0.7681,-0.7689,-0.7678,-0.7677,-0.7678,-0.7678,-0.7678,-0.7691,-0.7691,-0.7671,-0.7671,-0.7672,-0.7672,0,0,0,0,0,0,0,-0.7713,-0.7713,-0.7716,-0.7707,-0.7705,-0.7698,-0.7696,-0.7704,-0.7689,-0.7688,-0.7686,-0.7685,-0.7677,-0.7678,-0.7678,-0.7691,-0.7671,-0.7671,-0.7672,-0.7672,-0.7722,-0.7723,0,0,0,0,0,0,-0.7716,-0.7714,-0.7717,-0.7716,-0.7706,-0.7699,-0.7697,-0.7699,-0.7689,-0.7687,-0.7686,-0.7684,-0.7677,-0.7677,-0.7677,-0.7703,-0.7672,-0.7672,-0.7672,-0.7721,-0.7722,-0.7723,0,0,0,0,0,0,-0.7716,-0.7716,-0.7717,-0.7714,-0.7714,-0.77,-0.7702,-0.7699,-0.77,-0.7687,-0.7685,-0.7689,-0.7677,-0.7677,-0.7688,-0.7702,-0.7672,-0.7673,-0.7719,-0.7721,-0.7722,-0.7755,0,0,0,0,0,0,-0.7716,-0.7716,-0.7725,-0.7715,-0.7714,-0.7728,-0.7703,-0.77,-0.7701,-0.7698,-0.769,-0.7687,-0.7676,-0.7688,-0.7689,-0.7702,-0.7673,-0.7718,-0.772,-0.7722,-0.7752,-0.7757,-0.7761,0,0,0,0,0,-0.7716,-0.7734,-0.7725,-0.7726,-0.7724,-0.7729,-0.7729,-0.7715,-0.7702,-0.771,-0.7702,-0.7688,-0.77,-0.7689,-0.769,-0.7704,-0.7717,-0.7719,-0.7722,-0.775,-0.7756,-0.7761,0,0,0,0,0,0,-0.7747,-0.7733,-0.7723,-0.7739,-0.7735,-0.7724,-0.7734,-0.7721,-0.7722,-0.7719,-0.7702,-0.7701,-0.7715,-0.771,-0.7698,-0.7725,-0.7706,-0.7709,-0.7728,-0.7733,-0.7737,-0.7739,-0.7674,0,0,0,0,0,-0.7756,-0.7761,-0.7748,-0.7763,-0.7762,-0.7749,-0.775,-0.774,-0.7736,-0.7734,-0.7727,-0.7724,-0.7727,-0.773,-0.7732,-0.7751,-0.7749,-0.7761,-0.7765,-0.7769,-0.7772,-0.7782,-0.7787,-0.773,-0.773,-0.773,0,0,-0.7774,-0.7767,-0.7771,-0.777,-0.7766,-0.7772,-0.7748,-0.7755,-0.7759,-0.7735,-0.7746,-0.7741,-0.7736,-0.7751,-0.7758,-0.7748,-0.7787,-0.7772,-0.7775,-0.7776,-0.7785,-0.779,-0.7795,-0.7732,-0.7732,-0.7731,0,0,-0.781,-0.7805,-0.7817,-0.7814,-0.7808,-0.7799,-0.7802,-0.7792,-0.7788,-0.7798,-0.778,-0.7785,-0.7791,-0.7788,-0.7788,-0.7823,-0.781,-0.7824,-0.7847,-0.7857,-0.7862,-0.7866,-0.7879,-0.7883,-0.7826,-0.7826,-0.7826,0,-0.7834,-0.7842,-0.7825,-0.7834,-0.7834,-0.7812,-0.7824,-0.7822,-0.7817,-0.7818,-0.7807,-0.7814,-0.7809,-0.7824,-0.7832,-0.7832,-0.7835,-0.7825,-0.7862,-0.7866,-0.7869,-0.7882,-0.7886,-0.7828,-0.7828,-0.7828,-0.7828,0,-0.7871,-0.7877,-0.7887,-0.7883,-0.7884,-0.7895,-0.788,-0.7883,-0.7872,-0.7864,-0.7875,-0.7868,-0.7869,-0.7871,-0.7861,-0.7885,-0.7879,-0.7865,-0.7846,-0.7877,-0.7888,-0.7893,-0.7831,-0.783,-0.783,-0.7829,0,0,-0.7928,-0.7914,-0.7918,-0.7916,-0.7908,-0.7912,-0.7921,-0.7921,-0.7924,-0.7922,-0.7929,-0.7935,-0.7922,-0.7921,-0.791,-0.7919,-0.7947,-0.7904,-0.7904,-0.7913,-0.7973,-0.7984,-0.799,-0.7938,-0.7939,-0.7939,-0.7974,0,-0.7963,-0.7978,-0.7963,-0.7981,-0.7986,-0.7965,-0.7973,-0.7969,-0.7962,-0.7965,-0.7957,-0.7961,-0.7943,-0.7943,-0.795,-0.7942,-0.7959,-0.7939,-0.7946,-0.7946,-0.7948,-0.7995,-0.8007,-0.804,-0.7978,-0.7979,-0.7979,0,-0.8006,-0.8005,-0.8023,-0.8013,-0.8015,-0.8022,-0.8021,-0.8025,-0.802,-0.8013,-0.8012,-0.7999,-0.8007,-0.7988,-0.8,-0.7987,-0.7988,-0.7985,-0.7985,-0.7986,-0.7965,-0.7998,-0.805,-0.8055,-0.7986,-0.7985,-0.7985,0,-0.8046,-0.8049,-0.8061,-0.8059,-0.8048,-0.8054,-0.805,-0.8043,-0.8044,-0.8043,-0.8044,-0.8044,-0.8044,-0.8045,-0.8032,-0.8019,-0.8045,-0.8025,-0.8041,-0.8041,-0.8048,-0.8048,-0.8102,-0.8048,-0.8048,-0.8048,-0.8048,0,-0.8087,-0.8099,-0.8079,-0.8086,-0.8099,-0.8082,-0.8095,-0.8089,-0.8083,-0.8089,-0.8071,-0.8076,-0.8058,-0.8062,-0.8052,-0.8063,-0.8063,-0.8059,-0.8056,-0.8061,-0.8062,-0.8063,-0.8061,-0.8049,-0.8049,-0.8048,-0.8048,0,-0.8135,-0.8122,-0.8133,-0.8121,-0.8118,-0.8128,-0.8118,-0.8125,-0.8115,-0.8123,-0.8123,-0.8109,-0.8113,-0.8099,-0.8101,-0.8094,-0.8111,-0.8104,-0.8113,-0.8111,-0.8129,-0.8128,-0.8185,-0.8192,-0.8133,-0.8134,-0.8134,0,-0.8163,-0.8171,-0.816,-0.8163,-0.8159,-0.8163,-0.8164,-0.8147,-0.8148,-0.8143,-0.815,-0.8152,-0.8153,-0.8159,-0.815,-0.815,-0.8144,-0.8164,-0.8144,-0.8149,-0.8145,-0.8145,-0.8146,-0.8169,-0.8169,-0.817,-0.817,0,-0.8213,-0.8206,-0.8207,-0.8207,-0.8208,-0.8206,-0.8204,-0.8207,-0.8189,-0.8191,-0.8195,-0.8195,-0.8196,-0.8199,-0.8197,-0.8193,-0.8179,-0.8177,-0.8181,-0.8186,-0.8191,-0.8189,-0.8125,-0.8176,-0.8175,-0.8175,-0.8174,-0.8174,-0.8252,-0.8259,-0.8252,-0.8254,-0.8251,-0.8248,-0.8254,-0.8245,-0.8247,-0.8247,-0.8236,-0.8242,-0.8236,-0.8233,-0.823,-0.8234,-0.8225,-0.823,-0.8232,-0.8234,-0.8237,-0.819,-0.8234,-0.8233,-0.8233,-0.8233,-0.8233,0,-0.8302,-0.8297,-0.8299,-0.8295,-0.8297,-0.8283,-0.8279,-0.8282,-0.8287,-0.8282,-0.8283,-0.8287,-0.8289,-0.8279,-0.8279,-0.8285,-0.8278,-0.8285,-0.8285,-0.8285,-0.8245,-0.8242,-0.8291,-0.8291,-0.8291,-0.8291,-0.8291,-0.8291,-0.8329,-0.834,-0.8331,-0.834,-0.8335,-0.8339,-0.8338,-0.8337,-0.8333,-0.8338,-0.8339,-0.8332,-0.8326,-0.8326,-0.8327,-0.8324,-0.8325,-0.8335,-0.833,-0.8293,-0.8288,-0.8282,-0.8279,-0.8335,-0.8335,-0.8369,-0.837,-0.837]},{"header":{"parameterUnit":"m.s-1","parameterCategory":1,"la1":30.2991,"la2":30.254,"lo1":-89.0895,"lo2":-89.0444,"dy":0.0017,"dx":0.0017,"nx":28,"ny":28,"refTime":"2025-11-27T09:00:00:Z","depth":0,"parameterNumber":3,"parameterNumberName":"V-component_of_WINDS"},"data":[0,0,0,0,0,0,0,0,0,0,0,0,0,0,0,0,0,0,0,0,0,0,0,0,0,0,0,0,0,0,0,0,0,0,0,0,0,0,0,0,0,0,0,0,0,0,0,0,0,0,0,0,0,0,0,0,0,0,-5.0016,-5.0017,0,-5.0099,-5.01,-5.0101,-5.0091,-5.009,-5.0088,-5.0087,-5.0168,-5.0171,-5.0175,0,0,0,0,0,0,0,0,0,0,0,0,0,-4.9845,-4.9848,-5.0016,-5.0017,-5.0018,-5.0099,-5.01,-5.0101,-5.0091,-5.009,-5.0088,-5.0086,-5.0167,-5.0171,-5.0175,0,0,0,0,0,0,0,0,0,0,0,0,0,-4.9923,-4.9849,-5.0016,-5.0023,-5.0024,-5.0099,-5.01,-5.0102,-5.0092,-5.009,-5.0088,-5.0086,-5.0166,-5.017,-5.0175,-5.0247,0,0,-5.0191,-5.0193,0,0,0,0,0,0,0,0,-4.9918,-4.9929,-5.0021,-5.0023,-5.0024,-5.0083,-5.007,-5.015,-5.0092,-5.0066,-5.0087,-5.0085,-5.0141,-5.0148,-5.0168,-5.0251,-5.0254,-5.0191,-5.0195,-5.0197,-5.0198,0,0,0,0,0,0,0,-4.9913,-4.9925,-5.0049,-5.0022,-5.0024,-5.0021,-5.003,-5.0085,-5.0113,-5.0068,-5.0068,-5.0078,-5.0141,-5.0163,-5.017,-5.0255,-5.0191,-5.0196,-5.0199,-5.0201,-5.0403,-5.0405,0,0,0,0,0,0,-4.9906,-4.9921,-5.0046,-5.0051,-4.9966,-5.0026,-5.0035,-5.0066,-5.0113,-5.0118,-5.0079,-5.0077,-5.0155,-5.0164,-5.0172,-5.0261,-5.0197,-5.0202,-5.0204,-5.04,-5.0403,-5.0406,0,0,0,0,0,0,-4.9903,-4.9918,-5.0043,-4.9986,-5.0002,-5.0031,-5.0065,-5.0069,-5.009,-5.0122,-5.0126,-5.0096,-5.0154,-5.0165,-5.0229,-5.0263,-5.0204,-5.0208,-5.0398,-5.0401,-5.0404,-5.0437,0,0,0,0,0,0,-4.9898,-4.9916,-4.9945,-4.9987,-5.0005,-5.0099,-5.0067,-5.0072,-5.01,-5.0097,-5.0139,-5.0144,-5.0153,-5.0222,-5.0234,-5.0269,-5.0212,-5.0395,-5.0399,-5.0403,-5.0433,-5.0441,-5.0448,0,0,0,0,0,-4.9892,-4.9949,-4.9946,-4.9961,-5.0041,-5.0101,-5.0112,-5.0123,-5.0102,-5.0131,-5.0151,-5.0142,-5.0257,-5.0228,-5.0242,-5.0279,-5.0393,-5.0398,-5.0403,-5.0429,-5.0439,-5.0448,0,0,0,0,0,0,-4.9908,-4.9955,-4.9952,-5.0025,-5.006,-5.01,-5.0135,-5.0133,-5.0173,-5.0169,-5.0179,-5.0189,-5.0254,-5.0273,-5.024,-5.0352,-5.0322,-5.033,-5.0337,-5.0347,-5.0354,-5.0349,-5.0217,0,0,0,0,0,-4.992,-4.9967,-5.0004,-5.0065,-5.0083,-5.0106,-5.0133,-5.0139,-5.0175,-5.0189,-5.0213,-5.0247,-5.0291,-5.032,-5.0362,-5.0435,-5.0445,-5.0468,-5.0475,-5.0481,-5.0488,-5.053,-5.0541,-5.0423,-5.0423,-5.0423,0,0,-4.9946,-4.9977,-5.0005,-5.0069,-5.0097,-5.0144,-5.0119,-5.0169,-5.0204,-5.0196,-5.0259,-5.0278,-5.0317,-5.0386,-5.0418,-5.0404,-5.0523,-5.0488,-5.0492,-5.0496,-5.0536,-5.0548,-5.0557,-5.0426,-5.0426,-5.0425,0,0,-5.0016,-5.0045,-5.0099,-5.0128,-5.0171,-5.0186,-5.0199,-5.024,-5.0254,-5.0317,-5.0313,-5.0353,-5.0429,-5.0457,-5.0481,-5.0564,-5.0558,-5.0577,-5.0617,-5.0657,-5.0667,-5.0675,-5.0706,-5.0717,-5.0584,-5.0584,-5.0584,0,-5.0042,-5.0115,-5.0127,-5.0179,-5.0208,-5.0204,-5.0259,-5.0286,-5.034,-5.0359,-5.0343,-5.0438,-5.0464,-5.0541,-5.0561,-5.058,-5.0596,-5.0573,-5.0664,-5.0673,-5.0681,-5.071,-5.0722,-5.0586,-5.0586,-5.0586,-5.0586,0,-5.0145,-5.0195,-5.0234,-5.0288,-5.0321,-5.0374,-5.0394,-5.0425,-5.0428,-5.0445,-5.051,-5.0541,-5.059,-5.0608,-5.0611,-5.0686,-5.0676,-5.0662,-5.0633,-5.0694,-5.0722,-5.0733,-5.059,-5.0589,-5.0588,-5.0588,0,0,-5.0228,-5.029,-5.0304,-5.033,-5.0377,-5.0416,-5.0468,-5.0518,-5.0546,-5.0582,-5.0627,-5.0692,-5.068,-5.0707,-5.0713,-5.0748,-5.0814,-5.073,-5.0731,-5.0746,-5.09,-5.0911,-5.0924,-5.081,-5.0812,-5.0814,-5.0897,0,-5.0304,-5.04,-5.0414,-5.0498,-5.0545,-5.0543,-5.0589,-5.0623,-5.064,-5.0682,-5.07,-5.0747,-5.0726,-5.0743,-5.0778,-5.0799,-5.0845,-5.0792,-5.0852,-5.0854,-5.0843,-5.0938,-5.095,-5.1027,-5.0908,-5.091,-5.0911,0,-5.0407,-5.0449,-5.0539,-5.0582,-5.0602,-5.0644,-5.0691,-5.0731,-5.0769,-5.0779,-5.0811,-5.0813,-5.0867,-5.0835,-5.091,-5.0874,-5.0899,-5.0913,-5.0916,-5.0923,-5.0887,-5.0949,-5.1052,-5.1064,-5.0928,-5.0927,-5.0925,0,-5.046,-5.0539,-5.0604,-5.0626,-5.0677,-5.0706,-5.0729,-5.0765,-5.0795,-5.0836,-5.0855,-5.0901,-5.0926,-5.0961,-5.0975,-5.095,-5.105,-5.1019,-5.106,-5.106,-5.1082,-5.108,-5.1192,-5.1096,-5.1096,-5.1095,-5.1095,0,-5.0545,-5.06,-5.0629,-5.0669,-5.0731,-5.0745,-5.0806,-5.0827,-5.086,-5.0903,-5.0903,-5.0943,-5.0959,-5.1001,-5.1012,-5.1074,-5.1084,-5.1094,-5.1096,-5.1095,-5.1094,-5.1112,-5.1107,-5.1098,-5.1098,-5.1097,-5.1097,0,-5.0615,-5.0637,-5.0708,-5.0751,-5.0763,-5.0807,-5.0844,-5.0882,-5.0899,-5.0954,-5.0968,-5.0995,-5.1045,-5.1063,-5.1123,-5.113,-5.1202,-5.1199,-5.119,-5.1191,-5.1232,-5.1228,-5.1359,-5.1378,-5.1268,-5.1269,-5.127,0,-5.0669,-5.0712,-5.0761,-5.0791,-5.0815,-5.0863,-5.0894,-5.0909,-5.0941,-5.0989,-5.1022,-5.1072,-5.1113,-5.1194,-5.1218,-5.1264,-5.1264,-5.1306,-5.127,-5.1268,-5.1266,-5.1264,-5.1269,-5.1313,-5.1314,-5.1315,-5.1316,0,-5.0762,-5.0771,-5.0816,-5.0866,-5.0904,-5.0943,-5.0981,-5.1005,-5.1026,-5.1062,-5.1115,-5.1147,-5.121,-5.126,-5.1308,-5.133,-5.1327,-5.1327,-5.1339,-5.1339,-5.1332,-5.1338,-5.121,-5.1324,-5.1323,-5.1323,-5.1322,-5.1322,-5.0826,-5.0865,-5.0907,-5.0957,-5.0988,-5.1024,-5.1063,-5.1086,-5.1131,-5.1185,-5.1191,-5.1248,-5.1285,-5.135,-5.1374,-5.1418,-5.1406,-5.1423,-5.1428,-5.1432,-5.1436,-5.1325,-5.1426,-5.1426,-5.1426,-5.1426,-5.1426,0,-5.0921,-5.0947,-5.0994,-5.1049,-5.1089,-5.1084,-5.1126,-5.116,-5.1211,-5.1247,-5.1289,-5.135,-5.1399,-5.1427,-5.1476,-5.1506,-5.1506,-5.1519,-5.1517,-5.1523,-5.1443,-5.1429,-5.1518,-5.1518,-5.1518,-5.1518,-5.1518,-5.1518,-5.0974,-5.1041,-5.1055,-5.1136,-5.1162,-5.122,-5.1244,-5.1277,-5.1307,-5.1376,-5.1417,-5.1436,-5.1469,-5.1521,-5.1566,-5.1573,-5.1591,-5.1606,-5.1612,-5.1537,-5.1528,-5.1519,-5.1505,-5.1609,-5.1609,-5.1687,-5.1688,-5.1688]}]]